User: anonymous
Location: Fort Wayne
(41.1310°N, 85.1290°W)
Time: 18:19:26
(UTC-04:00)
Language:

OAO 2 Rocket - Orbit

View from above orbital plane
View from above orbital plane
View from above satellite
View from above satellite

Ground track
Ground track

The orbit data is extracted from the following two-line orbital elements,

1 03598U 68110B   14274.42850694  .00000744  00000-0  17707-3 0  7265
2 03598 034.9927 164.6105 0049578 122.5895 222.9103 14.53712719422321
Epoch (UTC): 01 October 2014 10:17:03
Eccentricity: 0.0049578
inclination: 34.9927°
perigee height: 678 km
apogee height: 749 km
right ascension of ascending node: 164.6105°
argument of perigee: 122.5895°
revolutions per day: 14.53712719
mean anomaly at epoch: 222.9103°
orbit number at epoch: 42232

The dashed part of the orbit path shows where the satellite is in the earth's shadow,  

DLR